GW6783 Weather Reports


time (UTC)temp
C
wind
direction
speed
KPH
gust
KPH
rain 1hr
cm
rain 24hr
cm
rain mn
cm
humidity
%
barometer
mb
20260510100548 10 159 4.8 17.7 0.00 0.05 0.05 91 1007.3
20260510100048 10 157 8.0 17.7 0.00 0.05 0.05 91 1007.2
20260510095545 10 137 6.4 25.7 0.00 0.05 0.05 91 1006.7
20260510095048 10 119 11.3 25.7 0.00 0.05 0.05 91 1006.1
20260510094551 10 135 9.7 20.9 0.00 0.05 0.05 91 1006.5
20260510094045 10 161 11.3 17.7 0.00 0.05 0.05 91 1006.7
20260510093545 10 168 9.7 16.1 0.00 0.05 0.05 91 1006.7
20260510093055 10 173 4.8 12.9 0.00 0.05 0.05 90 1006.8
20260510092545 10 173 4.8 17.7 0.00 0.05 0.05 90 1006.8
20260510092048 10 173 6.4 17.7 0.00 0.05 0.05 90 1006.7
20260510091559 10 173 8.0 16.1 0.00 0.05 0.05 90 1006.6
20260510091044 10 174 8.0 19.3 0.00 0.05 0.05 90 1006.5
20260510090545 10 168 8.0 19.3 0.00 0.05 0.05 90 1006.4
20260510090104 10 166 11.3 19.3 0.00 0.05 0.05 91 1006.4
20260510085547 10 154 6.4 19.3 0.00 0.05 0.05 91 1006.4
20260510085045 10 150 8.0 19.3 0.00 0.05 0.05 91 1006.2
20260510084557 10 147 9.7 19.3 0.00 0.05 0.05 91 1006.4
20260510084044 10 158 9.7 19.3 0.00 0.05 0.05 91 1006.2
20260510083545 10 159 9.7 20.9 0.00 0.05 0.05 91 1005.7
20260510083106 10 161 9.7 20.9 0.00 0.05 0.05 91 1005.9
20260510082544 10 133 9.7 19.3 0.03 0.05 0.05 91 1006.0
20260510082045 10 138 8.0 22.5 0.03 0.05 0.05 91 1006.1
20260510081552 10 156 8.0 22.5 0.03 0.05 0.05 91 1006.3
20260510081044 10 160 9.7 22.5 0.05 0.05 0.05 91 1006.3
20260510080545 10 148 11.3 22.5 0.05 0.05 0.05 91 1006.0
20260510075544 11 155 14.5 25.7 0.05 0.05 0.05 91 1006.2
20260510075044 11 153 9.7 22.5 0.05 0.05 0.05 91 1006.4
20260510074553 11 153 11.3 22.5 0.05 0.05 0.05 90 1006.4
20260510074047 11 144 12.9 27.4 0.05 0.05 0.05 90 1006.4
20260510073545 11 155 12.9 27.4 0.05 0.05 0.05 90 1006.5
20260510073055 11 153 11.3 24.1 0.05 0.05 0.05 89 1006.5
20260510072544 11 164 11.3 22.5 0.03 0.03 0.03 89 1006.7
20260510072045 11 163 9.7 25.7 0.03 0.03 0.03 88 1006.8
20260510071552 11 162 11.3 27.4 0.03 0.03 0.03 87 1006.7
20260510071044 11 159 11.3 27.4 0.00 0.00 0.00 86 1006.5
20260510070546 11 144 12.9 27.4 0.00 0.00 0.00 85 1006.8
20260510065545 11 164 16.1 27.4 0.00 0.00 0.00 84 1006.7
20260510065045 11 144 8.0 24.1 0.00 0.00 0.00 83 1006.8
20260510064610 11 156 11.3 25.7 0.00 0.00 0.00 81 1007.0
20260510064045 11 175 11.3 25.7 0.00 0.00 0.00 80 1007.0
20260510063545 11 175 9.7 24.1 0.00 0.00 0.00 80 1006.8
20260510063052 11 173 11.3 24.1 0.00 0.00 0.00 79 1006.9
20260510062547 11 193 12.9 24.1 0.00 0.00 0.00 78 1006.7
20260510062045 11 182 12.9 22.5 0.00 0.00 0.00 79 1006.7
20260510061554 11 181 9.7 20.9 0.00 0.00 0.00 78 1006.6
20260510061048 11 175 11.3 20.9 0.00 0.00 0.00 78 1006.6
20260510060548 11 160 9.7 24.1 0.00 0.00 0.00 79 1006.5
20260510060056 11 163 11.3 24.1 0.00 0.00 0.00 78 1006.4
20260510055544 11 168 9.7 22.5 0.00 0.00 0.00 79 1006.2
20260510055044 11 163 12.9 24.1 0.00 0.00 0.00 79 1006.3
20260510054600 11 164 11.3 24.1 0.00 0.00 0.00 79 1006.4
20260510054046 11 175 12.9 29.0 0.00 0.00 0.00 79 1006.5
20260510053545 11 144 11.3 29.0 0.00 0.00 0.00 79 1006.4
20260510053057 11 149 14.5 27.4 0.00 0.00 0.00 79 1006.5
20260510052545 11 171 14.5 25.7 0.00 0.00 0.00 79 1006.6
20260510052047 11 172 8.0 25.7 0.00 0.00 0.00 79 1006.8
20260510051547 11 172 14.5 27.4 0.00 0.00 0.00 79 1006.7
20260510051045 11 171 11.3 27.4 0.00 0.00 0.00 79 1006.7
20260510050547 11 187 9.7 25.7 0.00 0.00 0.00 79 1006.8
20260510050058 11 189 9.7 25.7 0.00 0.00 0.00 79 1006.7
20260510045545 11 162 11.3 25.7 0.00 0.00 0.00 79 1006.8
20260510045045 11 134 11.3 19.3 0.00 0.00 0.00 78 1006.8
20260510044602 11 173 9.7 19.3 0.00 0.00 0.00 78 1006.8
20260510044044 11 169 9.7 19.3 0.00 0.00 0.00 78 1006.7
20260510043546 11 161 8.0 19.3 0.00 0.00 0.00 78 1006.8
20260510043055 11 159 6.4 19.3 0.00 0.00 0.00 79 1006.6
20260510042548 11 158 4.8 16.1 0.00 0.00 0.00 78 1006.8
20260510042043 11 166 8.0 14.5 0.00 0.00 0.00 78 1006.7
20260510041610 11 167 8.0 16.1 0.00 0.00 0.00 78 1006.7
20260510041046 11 167 6.4 20.9 0.00 0.00 0.00 78 1006.7
20260510040543 11 172 9.7 25.7 0.00 0.00 0.00 78 1006.5
20260510040051 11 169 11.3 25.7 0.00 0.00 0.00 77 1006.3
20260510035543 11 161 12.9 25.7 0.00 0.00 0.00 77 1006.2
20260510035044 11 153 11.3 25.7 0.00 0.00 0.00 77 1006.0
20260510034557 11 153 11.3 25.7 0.00 0.00 0.00 78 1006.1
20260510034044 11 175 8.0 19.3 0.00 0.00 0.00 79 1006.3
20260510033546 11 175 9.7 19.3 0.00 0.00 0.00 79 1006.4
20260510033049 11 175 8.0 17.7 0.00 0.00 0.00 79 1006.5
20260510032547 11 180 9.7 19.3 0.00 0.00 0.00 79 1006.5
20260510032044 11 184 8.0 19.3 0.00 0.00 0.00 78 1006.7
20260510031551 11 176 9.7 17.7 0.00 0.00 0.00 78 1006.7
20260510031046 11 174 6.4 16.1 0.00 0.00 0.00 79 1006.6
20260510030543 11 180 6.4 14.5 0.00 0.00 0.00 75 1006.8
20260510030057 11 178 6.4 17.7 0.00 0.00 0.00 78 1006.6
20260510025543 11 178 8.0 17.7 0.00 0.00 0.00 78 1006.5
20260510025045 11 177 8.0 17.7 0.00 0.00 0.00 77 1006.5
20260510024552 11 184 8.0 16.1 0.00 0.00 0.00 77 1006.6
20260510024045 11 180 6.4 16.1 0.00 0.00 0.00 77 1006.7
20260510023548 11 178 8.0 16.1 0.00 0.00 0.00 75 1006.5
20260510023048 11 169 8.0 16.1 0.00 0.00 0.00 77 1006.5
20260510022544 11 169 4.8 12.9 0.00 0.00 0.00 78 1006.6
20260510022047 11 168 6.4 19.3 0.00 0.00 0.00 78 1006.6
20260510021548 11 168 8.0 19.3 0.00 0.00 0.00 78 1006.6
20260510021042 11 171 8.0 14.5 0.00 0.00 0.00 79 1006.5
20260510020543 11 174 6.4 12.9 0.00 0.00 0.00 80 1006.6
20260510020047 10 174 6.4 12.9 0.00 0.00 0.00 82 1006.6
20260510015544 10 175 4.8 12.9 0.00 0.00 0.00 83 1006.6
20260510015043 10 177 1.6 6.4 0.00 0.00 0.00 84 1006.8
20260510014547 10 177 1.6 6.4 0.00 0.00 0.00 84 1006.8
20260510014043 10 177 3.2 11.3 0.00 0.00 0.00 84 1006.9
20260510013543 10 177 3.2 11.3 0.00 0.00 0.00 85 1006.9
20260510013054 10 177 4.8 11.3 0.00 0.00 0.00 86 1006.9
20260510012543 10 177 3.2 8.0 0.00 0.00 0.00 87 1006.8
20260510012043 10 177 3.2 8.0 0.00 0.00 0.00 88 1006.8
20260510011548 10 177 1.6 8.0 0.00 0.00 0.00 88 1006.9
20260510011043 10 177 3.2 8.0 0.00 0.00 0.00 89 1006.9
20260510010543 10 177 3.2 6.4 0.00 0.00 0.00 89 1006.9
20260510010050 10 177 1.6 6.4 0.00 0.00 0.00 89 1007.1
20260510005543 10 177 1.6 6.4 0.00 0.00 0.00 88 1007.1
20260510005043 10 0 1.6 8.0 0.00 0.00 0.00 88 1007.2
20260510004553 10 177 3.2 8.0 0.00 0.00 0.00 88 1007.2
20260510004043 10 177 3.2 6.4 0.00 0.00 0.00 88 1007.3
20260510003554 10 177 3.2 6.4 0.00 0.00 0.00 88 1007.4
20260510003100 10 177 3.2 6.4 0.00 0.00 0.00 88 1007.3
20260510002546 10 177 3.2 6.4 0.00 0.00 0.00 88 1007.2
20260510002043 10 177 1.6 6.4 0.00 0.00 0.00 88 1007.1
20260510001551 10 177 3.2 6.4 0.00 0.00 0.00 87 1007.2
20260510001043 10 0 0.0 3.2 0.00 0.00 0.00 87 1007.4
20260510000543 10 0 0.0 4.8 0.00 0.00 0.00 87 1007.2
20260509235543 10 177 0.0 4.8 0.00 0.00 0.00 87 1007.0
20260509235042 10 177 1.6 4.8 0.00 0.00 0.00 87 1007.0
20260509234604 10 177 1.6 4.8 0.00 0.00 0.00 87 1006.9
20260509234044 10 177 1.6 9.7 0.00 0.00 0.00 87 1007.0
20260509233542 10 177 3.2 9.7 0.00 0.00 0.00 88 1007.0
20260509233057 10 177 3.2 8.0 0.00 0.00 0.00 89 1006.9
20260509232543 10 177 3.2 8.0 0.00 0.00 0.00 89 1007.0
20260509232043 10 177 1.6 8.0 0.00 0.00 0.00 89 1007.0
20260509231610 10 177 1.6 8.0 0.00 0.00 0.00 89 1006.9
20260509231048 10 177 4.8 11.3 0.00 0.00 0.00 89 1007.1
20260509230543 10 177 3.2 11.3 0.00 0.00 0.00 89 1007.0
20260509230104 10 177 1.6 14.5 0.00 0.00 0.00 89 1006.8
20260509225544 10 177 1.6 14.5 0.00 0.00 0.00 89 1006.9
20260509225042 10 177 6.4 12.9 0.00 0.00 0.00 89 1006.8
20260509224556 10 177 4.8 12.9 0.00 0.00 0.00 89 1006.9
20260509224048 10 176 3.2 11.3 0.00 0.00 0.00 89 1006.9
20260509223543 10 176 3.2 9.7 0.00 0.00 0.00 89 1007.0
20260509223049 10 175 4.8 11.3 0.00 0.00 0.00 89 1007.2
20260509222545 10 175 3.2 11.3 0.00 0.00 0.00 89 1007.3
20260509222044 10 175 4.8 12.9 0.00 0.00 0.00 88 1007.3
20260509221549 10 175 6.4 12.9 0.00 0.00 0.00 88 1007.4
20260509221048 10 175 6.4 14.5 0.00 0.00 0.00 88 1007.5
20260509220545 10 174 6.4 14.5 0.00 0.00 0.00 88 1007.5
20260509220051 10 176 6.4 14.5 0.00 0.00 0.00 87 1007.4
20260509215544 10 175 8.0 14.5 0.00 0.00 0.00 87 1007.4
20260509215046 10 175 4.8 14.5 0.00 0.00 0.00 87 1007.5
20260509214550 10 176 8.0 19.3 0.00 0.00 0.00 87 1007.5
20260509214044 10 176 9.7 19.3 0.00 0.00 0.00 86 1007.5
20260509213545 10 176 11.3 17.7 0.00 0.00 0.00 85 1007.6
20260509213050 10 187 9.7 17.7 0.00 0.00 0.00 85 1007.7
20260509212544 10 183 8.0 17.7 0.00 0.00 0.00 85 1007.8
20260509212047 10 190 9.7 17.7 0.00 0.00 0.00 84 1007.6
20260509211558 10 186 8.0 16.1 0.00 0.00 0.00 85 1007.7
20260509211043 10 182 6.4 14.5 0.00 0.00 0.00 85 1007.7
20260509210544 10 182 4.8 12.9 0.00 0.00 0.00 85 1007.7
20260509210104 10 182 6.4 12.9 0.00 0.00 0.00 84 1007.7
20260509205549 10 183 6.4 12.9 0.00 0.00 0.00 85 1007.8
20260509205045 10 183 4.8 11.3 0.00 0.00 0.00 85 1007.8
20260509204550 10 182 3.2 9.7 0.00 0.00 0.00 86 1007.8
20260509204044 10 182 4.8 11.3 0.00 0.00 0.00 86 1007.9
20260509203545 10 182 3.2 11.3 0.00 0.00 0.00 86 1007.9
20260509203053 10 182 4.8 8.0 0.00 0.00 0.00 86 1008.0
20260509202541 10 182 3.2 12.9 0.00 0.00 0.00 86 1008.1
20260509202047 10 182 4.8 12.9 0.00 0.00 0.00 86 1008.1
20260509201559 10 182 6.4 12.9 0.00 0.00 0.00 86 1008.0
20260509201045 10 179 4.8 16.1 0.00 0.00 0.00 86 1008.1
20260509200545 10 180 6.4 17.7 0.00 0.00 0.00 86 1008.2
20260509200052 10 178 6.4 17.7 0.00 0.00 0.00 86 1008.2
20260509195548 10 174 3.2 11.3 0.00 0.00 0.00 87 1008.2
20260509195044 10 174 4.8 12.9 0.00 0.00 0.00 87 1008.2
20260509194551 10 174 3.2 14.5 0.00 0.00 0.00 88 1008.2
20260509194047 10 174 4.8 14.5 0.00 0.00 0.00 88 1008.3
20260509193544 9 173 6.4 14.5 0.00 0.00 0.00 88 1008.3
20260509193055 9 173 6.4 17.7 0.00 0.00 0.00 88 1008.3
20260509192544 9 171 8.0 17.7 0.00 0.00 0.00 88 1008.3
20260509192044 9 175 6.4 16.1 0.00 0.00 0.00 87 1008.3
20260509191555 9 176 8.0 19.3 0.00 0.00 0.00 86 1008.5
20260509191042 10 175 8.0 22.5 0.00 0.00 0.00 84 1008.5
20260509190541 10 167 9.7 24.1 0.00 0.00 0.00 83 1008.4
20260509190108 10 176 11.3 24.1 0.00 0.00 0.00 81 1008.6
20260509185543 10 178 9.7 17.7 0.00 0.00 0.00 80 1008.7
20260509185042 10 174 8.0 20.9 0.00 0.00 0.00 80 1008.6
20260509184553 10 182 8.0 20.9 0.00 0.00 0.00 79 1008.6
20260509184043 10 185 11.3 20.9 0.00 0.00 0.00 78 1008.7
20260509183545 10 186 6.4 14.5 0.00 0.00 0.00 77 1008.8
20260509183047 10 182 6.4 14.5 0.00 0.00 0.00 76 1008.8
20260509182542 10 181 6.4 12.9 0.00 0.00 0.00 75 1008.8
20260509182044 10 180 6.4 12.9 0.00 0.00 0.00 75 1008.9
20260509181551 10 180 6.4 12.9 0.00 0.00 0.00 75 1008.8
20260509181042 10 185 4.8 9.7 0.00 0.00 0.00 74 1008.8
20260509180542 10 179 3.2 9.7 0.00 0.00 0.00 75 1008.9
20260509180059 10 178 3.2 9.7 0.00 0.00 0.00 75 1009.1
20260509175541 10 178 4.8 11.3 0.00 0.00 0.00 74 1009.0
20260509175041 10 178 4.8 12.9 0.00 0.00 0.00 73 1009.2
20260509174555 10 175 3.2 16.1 0.00 0.00 0.00 73 1009.0
20260509174042 10 176 3.2 16.1 0.00 0.00 0.00 73 1009.1
20260509173541 9 175 6.4 11.3 0.00 0.00 0.00 72 1009.3
20260509173057 9 179 4.8 12.9 0.00 0.00 0.00 72 1009.2
20260509172545 9 179 4.8 12.9 0.00 0.00 0.00 72 1009.3
20260509172045 9 178 4.8 14.5 0.00 0.00 0.00 71 1009.4
20260509171550 10 176 8.0 16.1 0.00 0.00 0.00 70 1009.4
20260509171041 10 178 8.0 19.3 0.00 0.00 0.00 69 1009.5
20260509170543 10 176 9.7 19.3 0.00 0.00 0.00 68 1009.4
20260509170059 10 165 9.7 19.3 0.00 0.00 0.00 65 1009.5
20260509165545 10 197 8.0 24.1 0.00 0.00 0.00 63 1009.5
20260509165041 10 186 12.9 24.1 0.00 0.00 0.00 59 1009.4
20260509164553 11 192 6.4 24.1 0.00 0.00 0.00 58 1009.4
20260509164042 11 173 9.7 29.0 0.00 0.00 0.00 55 1009.5
20260509163542 11 184 12.9 30.6 0.00 0.00 0.00 51 1009.5
20260509163103 11 178 11.3 30.6 0.00 0.00 0.00 50 1009.5
20260509162541 11 190 8.0 17.7 0.00 0.00 0.00 50 1009.6
20260509162041 11 183 6.4 22.5 0.00 0.00 0.00 49 1009.5
20260509161554 11 180 9.7 24.1 0.00 0.00 0.00 50 1009.6
20260509161042 12 190 11.3 24.1 0.00 0.00 0.00 50 1009.5
20260509160543 12 180 9.7 24.1 0.00 0.00 0.00 46 1009.6
20260509160049 12 190 11.3 24.1 0.00 0.00 0.00 45 1009.6
20260509155541 12 208 11.3 25.7 0.00 0.00 0.00 44 1009.5
20260509155045 12 212 11.3 27.4 0.00 0.00 0.00 44 1009.6
20260509154550 12 186 11.3 27.4 0.00 0.00 0.00 46 1009.6
20260509154042 12 181 4.8 19.3 0.00 0.00 0.00 48 1009.7
20260509153545 12 180 6.4 25.7 0.00 0.00 0.00 46 1009.7
20260509153050 12 175 11.3 25.7 0.00 0.00 0.00 41 1009.8
20260509152547 12 186 8.0 19.3 0.00 0.00 0.00 40 1009.8
20260509152048 12 204 6.4 19.3 0.00 0.00 0.00 45 1009.9
20260509151554 12 216 4.8 19.3 0.00 0.00 0.00 43 1009.9
20260509151048 12 213 8.0 19.3 0.00 0.00 0.00 44 1010.0
20260509150546 12 207 8.0 19.3 0.00 0.00 0.00 45 1009.9
20260509150107 12 211 8.0 16.1 0.00 0.00 0.00 44 1010.0
20260509145547 12 216 6.4 14.5 0.00 0.00 0.00 45 1010.0
20260509145045 12 214 8.0 19.3 0.00 0.00 0.00 46 1009.9
20260509144556 12 215 8.0 20.9 0.00 0.00 0.00 44 1010.0
20260509144048 12 161 9.7 20.9 0.00 0.00 0.00 41 1009.9
20260509143547 13 163 6.4 19.3 0.00 0.00 0.00 49 1009.9
20260509143102 12 159 11.3 19.3 0.00 0.00 0.00 41 1010.0
20260509142546 12 204 4.8 19.3 0.00 0.00 0.00 42 1009.9
20260509142048 12 182 9.7 22.5 0.00 0.00 0.00 40 1009.9
20260509141546 12 173 8.0 22.5 0.00 0.00 0.00 42 1010.0
20260509141046 12 176 6.4 20.9 0.00 0.00 0.00 42 1010.2
20260509140547 12 167 9.7 20.9 0.00 0.00 0.00 42 1010.1
20260509135548 12 161 8.0 19.3 0.00 0.00 0.00 41 1010.0
20260509135051 11 180 8.0 19.3 0.00 0.00 0.00 44 1010.1
20260509134553 11 169 8.0 19.3 0.00 0.00 0.00 42 1010.1
20260509134047 11 179 9.7 19.3 0.00 0.00 0.00 41 1010.1
20260509133543 11 173 4.8 22.5 0.00 0.00 0.00 45 1010.2
20260509133058 11 168 11.3 22.5 0.00 0.00 0.00 43 1010.3
20260509132547 11 181 8.0 14.5 0.00 0.00 0.00 46 1010.3
20260509132047 11 183 6.4 12.9 0.00 0.00 0.00 48 1010.3
20260509131549 11 184 3.2 14.5 0.00 0.00 0.00 50 1010.2
20260509131047 11 182 4.8 16.1 0.00 0.00 0.00 49 1010.4
20260509130544 10 183 6.4 19.3 0.00 0.00 0.00 49 1010.3
20260509130056 10 182 8.0 20.9 0.00 0.00 0.00 49 1010.5
20260509125546 10 179 8.0 20.9 0.00 0.00 0.00 49 1010.6
20260509125047 10 175 11.3 19.3 0.00 0.00 0.00 50 1010.5
20260509124556 10 186 8.0 19.3 0.00 0.00 0.00 49 1010.5
20260509124044 9 165 8.0 14.5 0.00 0.00 0.00 50 1010.7
20260509123548 9 185 6.4 14.5 0.00 0.00 0.00 54 1010.7
20260509123058 9 167 4.8 17.7 0.00 0.00 0.00 55 1010.7
20260509122547 8 165 8.0 17.7 0.00 0.00 0.00 55 1010.7
20260509122046 8 141 6.4 14.5 0.00 0.00 0.00 55 1010.8
20260509121558 8 136 4.8 12.9 0.00 0.00 0.00 58 1010.8
20260509121043 7 134 8.0 12.9 0.00 0.00 0.00 58 1010.8
20260509120544 7 121 3.2 9.7 0.00 0.00 0.00 63 1010.9
20260509120049 7 121 3.2 9.7 0.00 0.00 0.00 65 1010.9
20260509115549 6 121 3.2 9.7 0.00 0.00 0.00 65 1010.9
20260509115046 6 121 4.8 9.7 0.00 0.00 0.00 66 1010.9
20260509114600 6 121 3.2 8.0 0.00 0.00 0.00 66 1010.9
20260509114047 6 121 3.2 9.7 0.00 0.00 0.00 68 1011.0
20260509113550 5 121 3.2 9.7 0.00 0.00 0.00 69 1011.0
20260509113057 5 121 3.2 6.4 0.00 0.00 0.00 70 1011.0
20260509112546 5 0 1.6 6.4 0.00 0.00 0.00 70 1010.9
20260509112046 5 121 3.2 9.7 0.00 0.00 0.00 70 1010.9
20260509111551 4 121 1.6 11.3 0.00 0.00 0.00 71 1011.0
20260509111049 4 121 4.8 11.3 0.00 0.00 0.00 70 1011.0
20260509110546 4 121 3.2 11.3 0.00 0.00 0.00 71 1011.0
20260509110049 3 120 3.2 9.7 0.00 0.00 0.00 71 1011.0
20260509105545 3 120 1.6 9.7 0.00 0.00 0.00 73 1010.9
20260509105046 3 120 3.2 9.7 0.00 0.00 0.00 73 1011.0
20260509104551 3 120 3.2 9.7 0.00 0.00 0.00 74 1011.0
20260509104045 3 120 3.2 9.7 0.00 0.00 0.00 74 1010.8
20260509103542 2 120 1.6 9.7 0.00 0.00 0.00 75 1011.0
20260509103054 2 120 1.6 9.7 0.00 0.00 0.00 76 1010.9
20260509102547 2 120 1.6 9.7 0.00 0.00 0.00 76 1010.9
20260509102047 2 120 3.2 6.4 0.00 0.00 0.00 77 1010.9
20260509101550 2 120 1.6 6.4 0.00 0.00 0.00 76 1010.8
20260509101042 2 120 1.6 6.4 0.00 0.00 0.00 76 1010.9